Regional Weather Roundup
Issued by NWS

Home | Current Version | Previous Version | Text Only | Print | Product List | Glossary Off
Versions: 1 2 3 4 5 6 7 8 9 10 11 12 13 14 15 16 17 18 19 20 21 22 23 24 25 26 27 28 29 30 31 32 33 34 35 36 37 38 39 40 41 42 43 44 45 46 47 48 49 50

000
ASUS45 KCYS 301010
RWRWY

WYOMING REGIONAL WEATHER ROUNDUP
NATIONAL WEATHER SERVICE CHEYENNE WY
400 AM MDT TUE AUG 30 2016

NOTE:  "FAIR" INDICATES FEW OR NO CLOUDS BELOW 12,000 FEET
WITH NO SIGNIFICANT WEATHER AND/OR OBSTRUCTIONS TO VISIBILITY.

WYZ001-301100-
YELLOWSTONE NATIONAL PARK

CITY           SKY/WX    TMP DP  RH WIND       PRES   REMARKS
LK YELLOWSTONE   N/A     39  33  79 CALM      30.46S
W YELLOWSTONE  NOT AVBL

$$
WYZ002>013-054>058-071-098>099-301100-
NORTHERN WYOMING

CITY           SKY/WX    TMP DP  RH WIND       PRES   REMARKS
JACKSON        FAIR      45  34  65 NE5       30.38R
CODY           FAIR      64  37  36 SW7       30.23F
GREYBULL       FAIR      68  41  37 E7        30.19S
WORLAND        FAIR      64  41  42 SE8       30.21S
SHERIDAN       FAIR      53  45  74 MISG      30.18S
BUFFALO        FAIR      64  42  44 S10       30.27F
GILLETTE       FAIR      64  58  80 S14       30.26R
HULETT         FAIR      61  50  67 CALM      30.28F
NEWCASTLE      FAIR      59  54  82 CALM      30.29S

$$
WYZ014>020-022>026-101>103-301100-
CENTRAL WYOMING

CITY           SKY/WX    TMP DP  RH WIND       PRES   REMARKS
BIG PINEY      FAIR      46  29  51 N5        30.43S
PINEDALE       FAIR      41  32  70 NW7       30.44F
DUBOIS         FAIR      50  30  46 NW12      30.43F
LANDER         FAIR      62  36  37 NW12      30.31S
RIVERTON       FAIR      64  35  34 E6        30.31S
CASPER         FAIR      50  45  83 N3        30.33S
DOUGLAS        FAIR      53  49  86 CALM      30.32F

$$
WYZ021-027>030-104>119-301100-
SOUTHERN WYOMING

CITY           SKY/WX    TMP DP  RH WIND       PRES   REMARKS
EVANSTON       FAIR      59  23  25 E5        30.37S
FORT BRIDGER   FAIR      55  24  30 NW7       30.40S
ROCK SPRINGS   FAIR      59  33  37 SE12      30.37F
DIXON          FAIR      47  36  65 NE5       30.40F
RAWLINS        FAIR      49  35  58 E8        30.41S
SARATOGA       FAIR      45  36  70 S6        30.43R
LARAMIE        FAIR      40  37  89 W5        30.44F
CHEYENNE       FAIR      54  42  64 W7        30.37F
TORRINGTON     FAIR      57  54  89 CALM      30.27F
PINE BLUFFS    FAIR      50  45  81 CALM      30.33S

$$



USA.gov is the U.S. government's official web portal to all federal, state and local government web resources and services.